Terminal Aerodrome Forecast
Issued by NWS

Home | Current Version | Previous Version | Text Only | Print | Product List | Glossary On
Versions: 1 2 3 4 5 6 7 8 9 10 11 12 13 14 15 16 17 18 19
000
FTUS43 KIND 260910 AAA
TAFLAF
TAF AMD
KLAF 260910Z 2609/2706 29007KT 1SM RA BR SCT030 OVC060
     FM261000 27005KT 5SM BR VCSH OVC020
     FM261430 28009KT P6SM SCT020 SCT250=

USA.gov is the U.S. government's official web portal to all federal, state and local government web resources and services.